Location: Fours
(44.3167°N, 6.7000°E)
Time: 12:15:42
(UTC+00:00)

NOSS 3-2 (A) - Pass Details

Date: 30 November 2020
Orbit: 789 x 1419 km, 63.4° (Epoch: 22 January)

Event Time Altitude Azimuth Distance (km) Brightness Sun altitude
Rises 19:18:06 0° 239° (WSW) 3,362 7.0 -35.6°
Reaches altitude 10° 19:20:33 10° 246° (WSW) 2,484 6.3 -36.0°
Enters shadow 19:24:51 40° 289° (WNW) 1,330 4.5 -36.8°
